Starlink 11386

operational
NORAD ID: 62098 Int'l Des: 2024-220 Owner: SPXS Country: US Constellation: starlink
LEOCIRCULAR

Über Starlink 11386

Beschreibung wird geladen...

Live-Position

3D-Globus wird geladen...

Nächste Überflüge

Höhenverlauf

Altitude vs Time

uPlot chart will show altitude changes over time

Zweizeiliger Elementsatz

1 62098U 24220L 25351.58058319 .00193339 00000-0 14753-2 0 9990
2 62098 43.0004 177.6338 0002065 265.0056 95.0576 15.70841780 62045
Epoch: 17. Dez. 2025 • Age: 9 hours

Aktueller Status

Höhe 357.0 km
Geschwindigkeit 7.70 km/s
Subsatellitenpunkt 26.41°N, 131.52°E
Startdatum 25. Nov. 2024
Alter 1 years
Typ internet

Technische Details

Klassifizierung Payload
Masse 960.00 kg
Trockenmasse 910.00 kg
Gesamtmasse 960.00 kg
Länge 0.30 m
Durchmesser 4.10 m
Spannweite 29.00 m
Form Box + pan
Hersteller SPXS
Bus-Typ Starlink V2MD
Phasenstatus In Orbit
Besitzer/Staat SPXS/US

Große Konstellationen

Loading constellations...